Погода в Авангарде

Россия / Тульская область     54°28′18″N   37°06′52″E
темп.,
°C
ветер,
м/с
пор.,
м/с
влажн.,
%
обл.,
%
осадки,
мм/ч
давл.,
гПа
погр.,
м
15 июня, вт
вт1500:00+16сз11865 0.4 101511
03:00+15ссз11895 0.4 101511
06:00+17с11873 0.0 101541
09:00+21с11784 0.4 1014230
12:00+24ссз00615 1.1 10131115
15:00+25зюз22601 1.3 10121428
18:00+24з23693 0.2 1010655
21:00+18сз22855 1.4 101118
16 июня, ср
ср1600:00+16сз23914 0.1 101127
03:00+15ссз34951 0.1 101165
06:00+16ссз37930 0.0 1012209
09:00+20ссз467410 0.0 1012500
12:00+22с5661100 0.0 10131534
15:00+24с3558100 0.0 10132123
18:00+22с26748 0.2 1015349
21:00+16с34753 0.3 101745
17 июня, чт
чт1700:00+13ссв35805 0.0 101982
03:00+11ссв36735 0.0 102181
06:00+12ссв36780 0.0 1023137
09:00+17св46635 0.0 1024458
12:00+20св45520 0.0 10241252
15:00+22всв34500 0.0 10251478
18:00+21в35670 0.0 1025447
21:00+15вюв22785 0.0 102611
18 июня, пт
пт1800:00+14в117142 0.0 102710
03:00+12св117359 0.0 102710
06:00+15в11765 0.0 102834
09:00+19вюв12660 0.0 1028385
12:00+22юв23590 0.0 10281146
15:00+23юв22565 0.0 10281402
18:00+23ююв12645 0.0 10271285
21:00+17ю33855 0.0 102823
19 июня, сб
сб1900:00+14ююз33885 0.0 102826
03:00+13ююз22895 0.0 102913
06:00+15ююз22875 0.0 102981
09:00+20ююз23730 0.0 1029474
12:00+22ююз33640 0.0 10281146
15:00+25юз33570 0.0 10271366
18:00+24юз34700 0.0 1026532
21:00+18юз33880 0.0 102636